Weather History for KSNL - February, 2014

Change the Weather History Date:

Wednesday, February 26, 2014

  Actual Average (KTIK) Record (KTIK)
Temperature  
Mean Temperature 30 °F -  
Max Temperature 42 °F 52 °F 78 °F (1999)
Min Temperature 19 °F 31 °F 15 °F (2002)
Degree Days  
Heating Degree Days 34    
Moisture  
Dew Point 16 °F    
Average Humidity 56    
Maximum Humidity 80    
Minimum Humidity 36    
Precipitation  
Precipitation 0.00 in - - ()
Sea Level Pressure  
Sea Level Pressure 30.28 in    
Wind  
Wind Speed 10 mph (North)    
Max Wind Speed 18 mph    
Max Gust Speed 26 mph    
Visibility 10 miles    
Events      
Averages and records for this station are not official NWS values.
T = Trace of Precipitation, MM = Missing Value Source: NWS Daily Summary

Daily Weather History Graph

Daily Weather History Graph

Search for Another Location

Airport or City:

Trip Planner

Search our weather history database for the weather conditions in past years. The results will help you decide how hot, cold, wet, or windy it might be!

Date:

Astronomy

Feb. 26, 2014 Rise Set
Actual Time 7:01 AM CST 6:20 PM CST
Civil Twilight 6:35 AM CST 6:46 PM CST
Nautical Twilight 6:06 AM CST 7:15 PM CST
Astronomical Twilight 5:36 AM CST 7:45 PM CST
Moon 4:43 AM CST (2/26) 3:40 PM CST (2/26)
Length of Visible Light 12h 10m
Length of Day
11h 19m
Waning Crescent, 10% of the Moon is Illuminated
Feb 26
Waning Crescent
Mar 1
New
Mar 8
First Quarter
Mar 16
Full
Mar 23
Last Quarter

Hourly Weather History & Observations

Time (CST) Temp. Windchill Dew Point Humidity Pressure Visibility Wind Dir Wind Speed Gust Speed Precip Events Conditions
12:15 AM 32.0 °F 20.5 °F 23.0 °F 69% 30.35 in 10.0 mi North 18.4 mph 25.3 mph N/A   Overcast
12:35 AM 32.0 °F 20.5 °F 21.2 °F 64% 30.36 in 10.0 mi North 18.4 mph 26.5 mph N/A   Overcast
12:55 AM 32.0 °F 20.8 °F 21.2 °F 64% 30.37 in 10.0 mi North 17.3 mph 23.0 mph N/A   Overcast
1:15 AM 32.0 °F 20.8 °F 21.2 °F 64% 30.38 in 10.0 mi North 17.3 mph 25.3 mph N/A   Overcast
1:35 AM 32.0 °F 20.5 °F 19.4 °F 60% 30.38 in 10.0 mi NNE 18.4 mph 24.2 mph N/A   Overcast
1:55 AM 30.2 °F 21.3 °F 17.6 °F 60% 30.38 in 10.0 mi North 10.4 mph 19.6 mph N/A   Overcast
2:15 AM 30.2 °F 21.3 °F 17.6 °F 60% 30.38 in 10.0 mi NNE 10.4 mph 17.3 mph N/A   Overcast
2:35 AM 30.2 °F 21.3 °F 17.6 °F 60% 30.38 in 10.0 mi North 10.4 mph 20.7 mph N/A   Overcast
2:55 AM 30.2 °F 19.8 °F 17.6 °F 60% 30.38 in 10.0 mi North 13.8 mph - N/A   Overcast
3:15 AM 28.4 °F 16.6 °F 15.8 °F 59% 30.37 in 10.0 mi North 16.1 mph - N/A   Scattered Clouds
3:35 AM 26.6 °F 14.7 °F 15.8 °F 64% 30.37 in 10.0 mi North 15.0 mph 19.6 mph N/A   Clear
3:55 AM 26.6 °F 17.5 °F 14.0 °F 59% 30.36 in 10.0 mi North 9.2 mph - N/A   Clear
4:15 AM 24.8 °F 14.0 °F 14.0 °F 64% 30.36 in 10.0 mi North 11.5 mph - N/A   Clear
4:35 AM 23.0 °F 10.1 °F 14.0 °F 68% 30.36 in 10.0 mi North 15.0 mph 20.7 mph N/A   Clear
4:55 AM 23.0 °F 11.7 °F 14.0 °F 68% 30.37 in 10.0 mi North 11.5 mph 18.4 mph N/A   Clear
5:15 AM 23.0 °F 11.1 °F 14.0 °F 68% 30.37 in 10.0 mi North 12.7 mph 19.6 mph N/A   Clear
5:35 AM 21.2 °F 8.3 °F 14.0 °F 74% 30.38 in 10.0 mi North 13.8 mph 18.4 mph N/A   Clear
5:55 AM 21.2 °F 10.9 °F 14.0 °F 74% 30.39 in 10.0 mi North 9.2 mph - N/A   Clear
6:15 AM 21.2 °F 10.1 °F 14.0 °F 74% 30.39 in 10.0 mi North 10.4 mph - N/A   Clear
6:35 AM 21.2 °F 11.7 °F 14.0 °F 74% 30.39 in 10.0 mi North 8.1 mph - N/A   Clear
6:55 AM 21.2 °F 11.7 °F 14.0 °F 74% 30.40 in 10.0 mi North 8.1 mph - N/A   Clear
7:15 AM 19.4 °F 8.6 °F 14.0 °F 80% 30.40 in 10.0 mi North 9.2 mph - N/A   Clear
7:35 AM 21.2 °F 10.9 °F 14.0 °F 74% 30.39 in 10.0 mi North 9.2 mph - N/A   Clear
7:55 AM 21.2 °F 10.9 °F 14.0 °F 74% 30.38 in 10.0 mi NNE 9.2 mph - N/A   Clear
8:15 AM 21.2 °F 12.6 °F 14.0 °F 74% 30.39 in 10.0 mi North 6.9 mph - N/A   Clear
8:35 AM 23.0 °F 13.1 °F 14.0 °F 68% 30.39 in 10.0 mi North 9.2 mph - N/A   Clear
9:00 AM 24.8 °F 14.0 °F 14.0 °F 64% 30.39 in 10.0 mi North 11.5 mph - N/A   Clear
9:15 AM 24.8 °F 15.3 °F 14.0 °F 64% 30.40 in 10.0 mi NNE 9.2 mph - N/A   Clear
9:35 AM 26.6 °F 17.5 °F 14.0 °F 59% 30.39 in 10.0 mi NNE 9.2 mph - N/A   Clear
9:55 AM 26.6 °F 18.2 °F 14.0 °F 59% 30.38 in 10.0 mi North 8.1 mph - N/A   Clear
10:15 AM 28.4 °F 19.7 °F 15.8 °F 59% 30.38 in 10.0 mi North 9.2 mph - N/A   Clear
10:35 AM 30.2 °F 22.6 °F 15.8 °F 55% 30.38 in 10.0 mi North 8.1 mph - N/A   Clear
10:55 AM 30.2 °F 25.4 °F 14.0 °F 51% 30.37 in 10.0 mi North 4.6 mph - N/A   Clear
11:15 AM 32.0 °F 24.8 °F 14.0 °F 48% 30.36 in 10.0 mi NE 8.1 mph - N/A   Clear
11:35 AM 32.0 °F 23.0 °F 14.0 °F 48% 30.35 in 10.0 mi North 11.5 mph - N/A   Clear
11:55 AM 32.0 °F 23.0 °F 12.2 °F 44% 30.35 in 10.0 mi NNE 11.5 mph - N/A   Clear
12:15 PM 32.0 °F 25.6 °F 12.2 °F 44% 30.34 in 10.0 mi North 6.9 mph 18.4 mph N/A   Clear
12:35 PM 33.8 °F 27.7 °F 14.0 °F 44% 30.33 in 10.0 mi NNW 6.9 mph 10.4 mph N/A   Clear
12:55 PM 33.8 °F 28.6 °F 14.0 °F 44% 30.31 in 10.0 mi NE 5.8 mph - N/A   Clear
1:15 PM 35.6 °F 29.2 °F 14.0 °F 41% 30.30 in 10.0 mi North 8.1 mph - N/A   Clear
1:35 PM 35.6 °F 32.8 °F 14.0 °F 41% 30.29 in 10.0 mi NNW 3.5 mph - N/A   Clear
1:55 PM 35.6 °F 28.6 °F 14.0 °F 41% 30.27 in 10.0 mi NNE 9.2 mph - N/A   Clear
2:15 PM 35.6 °F 29.9 °F 14.0 °F 41% 30.25 in 10.0 mi North 6.9 mph - N/A   Clear
2:35 PM 37.4 °F 32.1 °F 15.8 °F 41% 30.24 in 10.0 mi North 6.9 mph - N/A   Clear
2:55 PM 37.4 °F 34.9 °F 15.8 °F 41% 30.23 in 10.0 mi North 3.5 mph - N/A   Clear
3:15 PM 39.2 °F 35.0 °F 15.8 °F 39% 30.21 in 10.0 mi North 5.8 mph - N/A   Clear
3:35 PM 41.0 °F - 17.6 °F 39% 30.19 in 10.0 mi Calm Calm - N/A   Clear
3:55 PM 41.0 °F 38.0 °F 17.6 °F 39% 30.19 in 10.0 mi North 4.6 mph - N/A   Clear
4:15 PM 41.0 °F - 17.6 °F 39% 30.18 in 10.0 mi Calm Calm - N/A   Clear
4:35 PM 41.0 °F - 17.6 °F 39% 30.17 in 10.0 mi Calm Calm - N/A   Clear
4:55 PM 42.8 °F - 17.6 °F 36% 30.16 in 10.0 mi Calm Calm - N/A   Clear
5:15 PM 42.8 °F - 17.6 °F 36% 30.16 in 10.0 mi Calm Calm - N/A   Clear
5:35 PM 42.8 °F - 17.6 °F 36% 30.15 in 10.0 mi Calm Calm - N/A   Clear
5:55 PM 41.0 °F - 17.6 °F 39% 30.15 in 10.0 mi Calm Calm - N/A   Clear
6:15 PM 37.4 °F - 15.8 °F 41% 30.14 in 10.0 mi Calm Calm - N/A   Clear
6:35 PM 35.6 °F - 15.8 °F 44% 30.14 in 10.0 mi Calm Calm - N/A   Clear
6:55 PM 33.8 °F - 14.0 °F 44% 30.14 in 10.0 mi Calm Calm - N/A   Clear
7:15 PM 32.0 °F - 15.8 °F 51% 30.14 in 10.0 mi Calm Calm - N/A   Clear
7:35 PM 32.0 °F - 14.0 °F 48% 30.15 in 10.0 mi Calm Calm - N/A   Clear
7:55 PM 30.2 °F - 12.2 °F 47% 30.15 in 10.0 mi Calm Calm - N/A   Clear
8:15 PM 32.0 °F - 17.6 °F 55% 30.16 in 10.0 mi Calm Calm - N/A   Clear
8:35 PM 32.0 °F - 17.6 °F 55% 30.17 in 10.0 mi Calm Calm - N/A   Clear
8:55 PM 30.2 °F - 15.8 °F 55% 30.17 in 10.0 mi Calm Calm - N/A   Clear
9:15 PM 28.4 °F - 14.0 °F 55% 30.17 in 10.0 mi Calm Calm - N/A   Clear
9:35 PM 28.4 °F - 14.0 °F 55% 30.17 in 10.0 mi Calm Calm - N/A   Clear
10:00 PM 28.4 °F - 15.8 °F 59% 30.17 in 10.0 mi Calm Calm - N/A   Clear
10:15 PM 28.4 °F - 14.0 °F 55% 30.16 in 10.0 mi Calm Calm - N/A   Clear
10:35 PM 30.2 °F 26.7 °F 17.6 °F 60% 30.16 in 10.0 mi SW 3.5 mph - N/A   Clear
10:55 PM 28.4 °F - 17.6 °F 64% 30.15 in 10.0 mi Calm Calm - N/A   Clear
11:15 PM 26.6 °F 22.6 °F 17.6 °F 69% 30.15 in 10.0 mi SW 3.5 mph - N/A   Clear
11:35 PM 28.4 °F 24.6 °F 17.6 °F 64% 30.14 in 10.0 mi SW 3.5 mph - N/A   Clear
11:55 PM 28.4 °F 24.6 °F 17.6 °F 64% 30.14 in 10.0 mi SW 3.5 mph - N/A   Clear